Location: Cape Cod Imaging Station
(41.7417°N, 70.1583°W)
Time: 12:08:59
(UTC-05:00)

N. Korean satellite - Visible Passes

Search period start: 16 January 2018 00:00
Search period end: 26 January 2018 00:00
Orbit: 459 x 515 km, 97.2° (Epoch: 16 January)

Date Brightness Start Highest point End Pass type
(mag) Time Alt. Az. Time Alt. Az. Time Alt. Az.
16 Jan 6.5 17:25:36 10° SSE 17:29:12 65° ENE 17:32:46 10° N visible
17 Jan 6.5 06:25:55 10° NNE 06:29:23 86° E 06:32:49 10° SSW visible
17 Jan 7.3 17:02:23 10° SE 17:05:38 32° ENE 17:08:51 10° N visible
17 Jan 9.8 18:36:59 10° SW 18:39:13 15° W 18:41:25 10° NW visible
18 Jan 8.1 06:02:26 10° NNE 06:05:41 38° E 06:08:56 10° SSE visible
18 Jan 8.7 18:12:13 10° SSW 18:15:26 29° W 18:18:36 10° NW visible
19 Jan 9.5 05:39:21 10° NE 05:41:55 19° E 05:44:28 10° SE visible
19 Jan 7.2 17:48:08 10° S 17:51:43 60° W 17:55:15 10° NNW visible
20 Jan 6.5 17:24:30 10° SSE 17:28:04 63° ENE 17:31:35 10° N visible
21 Jan 6.6 06:24:44 10° NNE 06:28:12 83° ESE 06:31:40 10° S visible
21 Jan 9.8 18:35:51 10° SW 18:38:03 15° W 18:40:15 10° NW visible
22 Jan 8.2 06:01:16 10° NNE 06:04:30 37° E 06:07:45 10° SSE visible
22 Jan 8.7 18:11:05 10° SSW 18:14:15 29° W 18:17:25 10° NW visible
23 Jan 9.6 05:38:11 10° NE 05:40:44 19° E 05:43:16 10° SE visible
23 Jan 7.1 17:47:00 10° S 17:50:32 62° W 17:54:02 10° NNW visible
24 Jan 6.5 17:23:21 10° SSE 17:26:53 61° ENE 17:30:21 10° N visible
25 Jan 6.6 06:23:32 10° NNE 06:27:00 81° ESE 06:30:28 10° S visible
25 Jan 9.8 18:34:38 10° SW 18:36:51 16° W 18:39:03 10° NW visible
